Temperature
14 14 15 15 15 15 14 15 15 15 15 16 16 16 16 16 16 16 16 16 15 15 15 15 15 15 14 14 14 14 13 13 13 14 15 16 16 16
13 14 14 14 14 14 15 15 15 15 15 16 16 16 16 16 16 16 16 15 15 15 15 14 15 15 14 14 14 13 13 13 14 15 16 16 16 16
14 14 14 14 14 15 15 15 14 15 15 15 15 15 15 15 15 15 15 15 14 15 15 15 14 14 14 14 14 14 13 14 15 15 15 16 16 16
13 13 14 14 14 14 14 14 15 15 14 15 15 15 15 15 15 15 15 15 15 15 15 15 15 15 15 15 15 14 14 14 15 15 15 16 16 16
12 12 13 13 13 13 13 14 14 14 14 14 15 15 15 15 15 15 15 15 14 15 15 15 14 14 14 15 14 15 15 15 15 16 16 16 16 16
12 12 12 12 12 12 13 13 13 14 13 14 14 15 15 15 15 15 14 14 14 14 14 14 14 14 14 14 14 14 14 14 15 15 15 16 15 16
11 12 12 11 12 12 12 12 13 13 13 13 14 14 14 14 14 15 14 14 14 14 14 14 14 15 15 15 15 16 15 15 15 15 15 15 15 15
11 11 11 11 11 11 11 11 11 11 12 12 12 13 13 13 14 14 13 14 14 13 14 14 14 15 14 15 15 15 16 16 16 15 15 15 14 14
11 11 11 11 11 11 11 11 11 11 11 12 12 12 12 12 12 12 12 13 13 13 13 14 14 15 15 15 15 15 16 16 16 16 15 15 14 14
11 11 11 11 11 11 11 11 11 11 11 11 11 12 12 12 12 12 12 12 12 12 13 13 13 14 14 14 14 14 15 15 15 16 15 15 15 15
11 11 11 11 11 11 12 12 12 12 12 12 12 12 12 12 12 12 12 12 12 12 12 12 12 12 13 13 13 14 14 15 14 15 15 15 15 14
11 11 11 11 11 12 11 12 12 12 12 12 12 12 12 12 12 12 12 12 12 12 12 12 12 12 12 12 12 12 13 14 14 14 15 15 14 14
11 11 11 11 10 11 11 11 11 11 12 12 12 12 11 11 12 12 12 12 12 12 12 11 11 11 11 11 11 11 11 11 12 13 14 14 15 14
10 10 10 10 10 10 11 11 11 11 11 12 12 12 11 12 12 12 12 12 12 12 12 11 11 11 11 11 11 11 11 11 11 12 12 12 13 14
9 9 9 10 10 10 10 10 10 11 11 11 10 10 10 11 12 12 12 12 12 12 12 11 11 11 11 11 11 11 11 11 12 12 11 11 11 12
8 9 9 9 9 9 9 9 9 9 10 10 10 10 10 10 11 12 12 10 11 12 12 11 11 11 11 11 11 10 11 11 11 11 11 10 11 12
8 8 8 9 9 9 9 9 8 9 9 8 9 9 9 9 9 10 10 10 10 11 12 12 11 11 11 12 11 11 11 10 10 11 11 10 10 10
8 8 8 8 8 8 8 8 8 8 8 8 8 8 9 9 9 9 9 9 10 11 11 11 11 10 11 11 11 11 11 11 11 10 10 10 10 9
8 7 7 8 8 8 7 7 7 7 7 7 8 8 8 8 9 9 9 9 10 10 10 10 10 10 10 10 11 11 11 11 11 11 11 10 10 10
8 8 7 7 7 7 7 7 6 6 6 6 6 6 6 7 7 7 8 8 9 10 10 10 10 10 10 10 10 11 11 11 12 12 12 11 10 10
7 7 7 7 7 7 6 6 5 5 5 5 5 5 5 6 6 6 6 7 7 8 9 9 9 9 9 9 9 10 10 10 11 11 12 12 11 10
7 7 7 7 6 6 6 5 5 4 4 4 4 4 4 5 5 5 5 5 5 6 7 7 7 8 8 7 8 9 10 10 10 11 11 11 11 11
7 7 7 6 6 6 5 5 4 4 4 3 3 3 3 4 4 4 4 4 4 4 5 6 6 7 7 7 7 8 8 9 9 10 10 11 11 11
Wind_Speed
3 3 3 3 4 4 4 5 4 1 3 4 4 3 3 3 2 2 2 3 5 5 1 5 8 13 16 17 20 22 25 26 22 20 20 21 20 20
3 1 1 2 5 4 1 2 4 4 6 4 3 3 2 1 3 4 5 4 3 3 6 9 10 12 14 18 20 22 22 20 20 21 21 21 20 20
5 4 1 1 1 3 4 2 3 6 5 4 3 3 3 3 3 4 6 4 4 6 9 12 13 15 17 21 22 21 18 20 21 22 21 20 20 20
4 1 3 5 5 5 4 4 3 3 4 4 3 3 5 4 4 4 3 4 5 7 9 13 16 18 20 22 21 19 18 20 23 23 23 22 21 21
3 5 5 5 4 4 4 4 3 3 2 3 4 3 4 3 2 2 2 1 4 6 9 12 14 14 16 17 16 14 15 17 20 23 25 24 23 22
5 6 5 4 4 5 5 5 6 5 3 2 3 3 4 3 2 2 2 2 2 2 6 10 13 15 17 18 16 15 15 16 18 20 23 23 24 25
6 6 7 9 9 6 4 6 7 5 4 3 3 3 2 2 1 2 2 1 1 0 2 3 5 7 9 13 15 17 19 18 19 20 21 22 23 25
6 7 7 9 9 7 6 6 6 5 5 3 3 3 4 3 2 1 1 2 1 0 2 2 4 4 5 7 12 17 21 22 21 22 23 24 25 26
7 7 7 9 9 7 9 10 10 9 7 3 3 4 3 4 3 2 1 0 1 1 2 2 3 4 4 5 9 15 17 19 23 23 23 24 24 25
6 6 8 10 12 10 9 9 8 7 7 4 3 2 2 4 3 1 1 1 2 2 3 0 1 2 4 2 4 6 10 14 18 21 19 19 21 24
6 7 8 9 10 10 9 9 9 9 7 6 7 7 5 4 5 3 3 3 2 2 2 1 0 0 2 3 4 5 7 9 11 14 14 9 11 15
5 7 9 10 11 13 10 9 10 10 9 7 6 6 6 6 4 3 1 1 0 1 1 0 1 1 1 1 3 4 3 4 4 4 8 9 8 6
6 6 8 12 13 13 9 6 5 6 8 7 6 6 6 6 6 4 3 3 1 2 3 2 1 1 1 1 2 3 2 2 3 2 4 7 10 8
5 5 7 13 14 14 11 12 12 9 7 8 7 9 7 6 6 7 6 5 4 4 4 4 2 1 1 1 2 2 2 2 2 2 4 6 7 7
6 8 10 11 11 9 11 14 12 8 7 7 7 5 5 4 4 7 10 8 5 4 4 5 4 2 1 1 1 2 1 1 1 1 2 1 3 4
9 9 9 8 7 7 6 6 6 6 6 5 4 6 7 9 8 6 6 8 6 5 5 3 2 2 3 3 3 3 3 1 2 2 2 1 3 3
5 4 5 5 7 7 7 6 6 7 6 5 5 6 6 6 5 7 7 8 6 5 4 4 3 1 1 3 4 4 3 3 4 1 2 3 7 9
4 4 4 5 5 5 6 7 8 8 6 5 5 5 5 5 5 3 2 4 4 3 3 2 5 5 5 3 2 2 3 3 4 4 3 4 4 2
2 1 3 5 5 5 6 6 6 6 7 7 7 6 5 6 6 6 6 5 5 3 3 2 0 1 2 4 5 1 2 2 3 4 4 3 5 8
2 2 2 3 4 4 4 3 4 5 6 6 6 7 7 5 6 6 7 7 6 5 7 7 6 4 3 1 3 4 3 1 1 3 3 3 4 5
2 3 3 4 4 3 3 4 4 4 4 4 4 4 4 4 4 5 7 8 7 6 7 8 11 12 2 3 2 5 4 2 2 1 4 4 3 2
6 5 5 5 4 4 4 4 5 5 5 4 4 5 5 4 4 4 5 5 5 5 4 3 5 7 6 2 3 4 5 4 4 2 1 4 5 7
7 6 6 5 5 5 4 5 5 4 3 3 4 4 5 4 5 5 4 3 3 4 5 6 4 5 7 6 5 2 5 5 4 3 3 3 1 3
Wind_Direction
322 32 13 330 295 255 214 198 185 208 269 260 257 237 206 171 127 120 105 41 30 19 92 127 119 128 143 156 164 167 163 174 194 195 194 199 203 209
306 326 309 334 318 307 254 181 161 200 243 239 259 249 220 131 138 137 129 109 110 120 130 124 128 134 141 144 145 149 163 184 190 187 194 203 204 209
272 280 271 115 326 355 352 338 195 200 216 252 247 232 208 185 157 158 150 170 202 188 160 150 152 158 159 154 156 161 176 178 178 184 192 199 206 210
239 198 46 49 28 7 338 333 338 270 223 248 260 231 221 199 186 184 173 184 216 212 186 175 172 176 176 173 175 181 180 177 182 187 193 200 207 212
67 51 39 43 28 358 351 347 330 308 263 243 257 241 236 203 197 190 177 187 238 199 179 187 188 184 188 193 192 190 186 185 190 195 199 205 211 216
57 59 46 30 14 356 2 0 353 356 344 311 285 274 253 235 175 167 167 205 233 168 169 183 191 194 196 201 206 209 209 204 200 208 211 212 216 219
57 44 28 11 4 353 360 359 354 359 349 346 338 340 327 322 254 168 147 172 34 288 125 142 166 179 192 202 206 214 215 212 208 211 222 224 226 228
51 29 15 4 356 5 352 349 344 359 360 352 341 352 353 340 337 357 155 129 125 166 111 156 158 165 173 189 205 214 212 206 208 212 219 224 229 232
61 43 34 17 20 32 27 21 9 16 25 25 23 352 340 349 343 349 13 148 215 163 108 162 178 168 155 186 207 220 218 213 207 211 219 225 231 235
62 60 49 34 28 37 38 20 1 353 352 4 22 337 330 335 346 339 357 46 34 20 47 171 172 167 158 192 228 202 204 218 218 205 213 225 235 240
19 22 38 44 25 33 40 20 10 359 345 331 292 274 280 350 4 6 27 41 5 343 5 94 165 173 173 188 207 215 211 200 206 197 173 192 234 243
17 15 28 39 42 36 34 21 19 353 350 11 3 335 328 339 13 63 64 66 41 297 264 116 337 46 329 143 159 180 187 191 206 198 155 154 178 197
28 7 4 23 32 31 48 40 359 327 347 18 29 25 358 336 325 303 253 195 185 254 234 166 269 217 207 192 151 171 197 201 177 158 160 160 168 190
23 356 354 9 18 14 11 13 27 26 7 13 21 20 1 342 334 331 302 271 233 220 201 176 206 204 171 238 214 193 192 196 179 162 143 148 156 189
4 350 359 8 14 16 13 9 11 20 29 26 15 8 314 317 1 16 5 339 302 290 252 206 211 215 189 216 227 249 210 90 74 110 96 192 181 176
4 346 347 338 0 4 11 15 13 17 21 14 6 1 1 6 9 22 21 341 333 337 347 333 284 200 196 221 211 227 212 224 223 173 133 309 287 47
336 349 355 354 3 359 356 2 15 22 24 13 13 22 18 3 358 16 1 325 303 303 334 4 357 22 256 240 219 229 209 209 212 222 46 38 41 55
28 13 345 353 5 5 16 21 31 23 7 14 22 10 12 5 358 359 294 279 286 305 299 348 30 17 2 330 258 225 220 209 187 185 169 127 109 137
54 31 10 31 44 39 46 53 47 25 12 16 21 16 19 21 36 33 11 348 342 6 355 344 7 146 34 343 320 338 251 235 153 166 172 163 157 174
65 130 109 86 79 74 69 76 73 62 54 35 16 9 12 27 30 23 18 8 351 360 34 16 353 303 212 192 306 317 29 334 225 158 130 99 87 113
126 132 142 139 132 115 91 75 59 54 53 55 31 21 2 13 28 27 14 4 360 352 20 23 342 317 323 74 318 302 316 13 343 163 131 116 119 167
174 176 170 164 152 136 119 104 88 67 60 56 34 7 354 3 360 21 46 19 351 339 333 346 355 359 26 348 270 285 310 334 345 40 111 187 174 187
182 182 173 168 162 143 132 128 121 107 77 64 49 24 11 7 348 339 4 58 8 338 337 336 352 30 26 354 316 306 344 350 334 333 326 327 79 120
Height
1489 1489 1488 1489 1489 1487 1486 1487 1487 1486 1485 1487 1488 1486 1485 1485 1485 1485 1482 1480 1478 1479 1479 1478 1476 1476 1478 1483 1487 1489 1491 1498 1507 1512 1517 1521 1524 1528
1488 1487 1487 1486 1487 1486 1485 1484 1483 1485 1483 1483 1483 1482 1482 1482 1482 1481 1479 1478 1478 1478 1479 1478 1477 1478 1480 1481 1485 1488 1494 1500 1507 1512 1516 1520 1523 1525
1487 1487 1486 1485 1485 1484 1482 1480 1482 1483 1479 1478 1479 1479 1478 1479 1479 1478 1478 1478 1478 1478 1478 1477 1477 1479 1481 1482 1486 1491 1496 1500 1504 1510 1515 1519 1521 1522
1486 1485 1484 1483 1483 1481 1481 1480 1478 1478 1476 1474 1475 1476 1476 1475 1476 1476 1477 1477 1479 1479 1478 1478 1479 1481 1484 1486 1489 1493 1497 1500 1504 1508 1513 1517 1518 1520
1485 1483 1482 1482 1481 1479 1477 1476 1474 1473 1472 1472 1472 1473 1473 1471 1472 1472 1474 1476 1478 1479 1479 1480 1481 1483 1486 1489 1491 1494 1497 1499 1503 1506 1510 1512 1514 1515
1484 1482 1481 1480 1479 1477 1475 1473 1470 1470 1471 1470 1468 1468 1468 1468 1468 1469 1472 1475 1476 1476 1478 1480 1481 1483 1485 1487 1489 1492 1494 1496 1498 1502 1505 1507 1508 1509
1485 1482 1480 1480 1478 1476 1474 1472 1471 1468 1469 1469 1467 1465 1464 1465 1465 1466 1469 1473 1473 1474 1476 1477 1479 1480 1482 1484 1486 1489 1491 1492 1493 1496 1499 1501 1503 1504
1485 1483 1482 1481 1480 1478 1477 1474 1473 1470 1468 1468 1467 1465 1463 1463 1463 1464 1466 1469 1469 1471 1473 1475 1476 1478 1479 1482 1484 1485 1486 1487 1488 1490 1493 1496 1498 1499
1488 1487 1486 1484 1481 1480 1478 1476 1475 1472 1470 1468 1466 1467 1465 1464 1463 1464 1465 1466 1468 1468 1470 1472 1473 1474 1476 1478 1480 1482 1483 1483 1484 1485 1487 1490 1493 1494
1491 1490 1488 1486 1483 1482 1481 1479 1477 1476 1473 1470 1469 1469 1467 1466 1466 1465 1465 1466 1467 1466 1467 1469 1470 1471 1472 1474 1474 1476 1479 1479 1481 1481 1482 1484 1487 1488
1493 1492 1491 1489 1488 1487 1485 1482 1480 1478 1475 1473 1473 1473 1472 1469 1468 1467 1466 1466 1465 1465 1465 1466 1465 1466 1466 1468 1471 1471 1472 1473 1477 1479 1477 1478 1481 1482
1495 1494 1493 1491 1490 1488 1486 1484 1482 1479 1477 1477 1476 1476 1475 1472 1471 1469 1467 1466 1465 1465 1464 1463 1462 1462 1463 1464 1466 1467 1469 1468 1468 1470 1471 1474 1475 1476
1497 1496 1495 1493 1492 1491 1490 1488 1486 1484 1481 1478 1477 1476 1476 1473 1471 1471 1469 1468 1466 1465 1463 1461 1460 1460 1461 1462 1462 1461 1462 1463 1463 1464 1464 1466 1469 1471
1497 1496 1495 1494 1493 1491 1490 1489 1486 1483 1480 1478 1476 1475 1475 1474 1472 1470 1469 1469 1467 1465 1462 1461 1460 1459 1459 1458 1459 1458 1457 1457 1456 1457 1458 1459 1460 1464
1496 1496 1495 1494 1493 1492 1490 1488 1486 1483 1481 1479 1478 1477 1477 1474 1471 1469 1467 1466 1465 1464 1462 1461 1459 1458 1458 1458 1457 1455 1453 1454 1454 1452 1451 1454 1455 1457
1496 1495 1493 1492 1491 1490 1489 1488 1485 1482 1480 1479 1478 1476 1473 1472 1468 1466 1465 1465 1463 1462 1461 1460 1459 1458 1457 1457 1456 1455 1453 1453 1453 1451 1451 1450 1451 1451
1495 1494 1493 1491 1490 1489 1488 1487 1484 1482 1481 1479 1477 1475 1474 1473 1471 1467 1468 1467 1464 1462 1460 1459 1457 1457 1456 1455 1455 1454 1454 1454 1453 1451 1450 1450 1449 1451
1494 1493 1491 1490 1489 1488 1487 1486 1484 1482 1480 1480 1478 1476 1473 1472 1471 1470 1469 1468 1464 1461 1459 1457 1457 1457 1457 1455 1455 1455 1455 1455 1454 1453 1452 1452 1454 1456
1493 1492 1490 1490 1489 1488 1487 1486 1484 1483 1481 1479 1477 1475 1473 1471 1469 1467 1467 1465 1463 1459 1456 1456 1458 1457 1455 1455 1454 1454 1454 1454 1454 1453 1453 1454 1455 1456
1493 1492 1492 1491 1491 1490 1488 1487 1485 1483 1482 1481 1479 1476 1473 1470 1468 1466 1465 1464 1463 1459 1457 1456 1455 1455 1454 1454 1453 1453 1452 1452 1453 1453 1454 1454 1457 1459
1493 1493 1492 1491 1490 1489 1488 1485 1483 1482 1480 1479 1479 1476 1475 1472 1469 1466 1464 1463 1462 1460 1457 1456 1457 1454 1453 1452 1453 1452 1452 1451 1451 1452 1453 1453 1454 1457
1491 1491 1490 1489 1488 1487 1486 1484 1482 1480 1479 1477 1476 1475 1473 1471 1469 1467 1464 1463 1462 1461 1459 1457 1457 1454 1452 1452 1451 1451 1449 1449 1450 1450 1452 1453 1453 1454
1489 1489 1488 1487 1486 1485 1484 1482 1481 1480 1478 1476 1475 1473 1471 1470 1467 1465 1463 1462 1461 1460 1458 1455 1453 1452 1451 1451 1450 1448 1446 1446 1448 1449 1450 1450 1451 1451